User: anonymous   Login
Location: Mentone
(34.5413°N, 85.5351°W)
Time: 05:05:33
(UTC-05:00)
Language:

ADEOS Rocket - Orbit

View from above orbital plane
View from above orbital plane
View from above satellite
View from above satellite

Ground track
Ground track

The orbit data is extracted from the following two-line orbital elements,

1 24279U 96046C   16119.10913418 -.00000020  00000-0  23342-4 0  9995
2 24279  98.6993 109.5696 0299031 267.4506 132.2538 13.47047165968364
Epoch (UTC): 28 April 2016 02:37:09
Eccentricity: 0.0299031
inclination: 98.6993°
perigee height: 860 km
apogee height: 1306 km
right ascension of ascending node: 109.5696°
argument of perigee: 267.4506°
revolutions per day: 13.47047165
mean anomaly at epoch: 132.2538°
orbit number at epoch: 96836

The dashed part of the orbit path shows where the satellite is in the earth's shadow,  

DLR